This is the latest recevied weather packets stored in our database for station/object KC7UNY-13. If no packets are shown the sender has not sent any weather packets the latest 10 day(s).
| Time | Temp. | Humidity | Pressure | Rain* | Wind** | Luminosity | Snow |
|---|---|---|---|---|---|---|---|
| 1777847744 | 35° C | 19% | 1007.4 hPa | 0 mm | - | 496 W/m² | - |
| 1777847439 | 35.56° C | 19% | 1007.5 hPa | 0 mm | - | 500 W/m² | - |
| 1777847137 | 35.56° C | 19% | 1007.5 hPa | 0 mm | - | 516 W/m² | - |
| 1777846835 | 35.56° C | 18% | 1007.6 hPa | 0 mm | - | 529 W/m² | - |
| 1777846533 | 35° C | 19% | 1007.7 hPa | 0 mm | - | 544 W/m² | - |
| 1777846230 | 35° C | 19% | 1007.8 hPa | 0 mm | - | 552 W/m² | - |
| 1777845926 | 35° C | 19% | 1007.8 hPa | 0 mm | - | 568 W/m² | - |
| 1777845623 | 35° C | 19% | 1008.1 hPa | 0 mm | - | 584 W/m² | - |
| 1777845320 | 35° C | 20% | 1008.1 hPa | 0 mm | - | 600 W/m² | - |
| 1777845017 | 35° C | 19% | 1008.2 hPa | 0 mm | - | 611 W/m² | - |
| 1777844716 | 35° C | 20% | 1008.4 hPa | 0 mm | - | 626 W/m² | - |
| 1777844412 | 35° C | 20% | 1008.4 hPa | 0 mm | - | 637 W/m² | - |
| 1777844111 | 35° C | 20% | 1008.4 hPa | 0 mm | - | 650 W/m² | - |
| 1777843807 | 35° C | 20% | 1008.5 hPa | 0 mm | - | 660 W/m² | - |
| 1777843504 | 35° C | 19% | 1008.7 hPa | 0 mm | - | 675 W/m² | - |
| 1777843201 | 35.56° C | 19% | 1008.7 hPa | 0 mm | - | 684 W/m² | - |
| 1777842899 | 35° C | 20% | 1009 hPa | 0 mm | - | 693 W/m² | - |
| 1777842594 | 35° C | 19% | 1009 hPa | 0 mm | - | 703 W/m² | - |
| 1777842291 | 35° C | 19% | 1009.2 hPa | 0 mm | - | 712 W/m² | - |
| 1777841991 | 34.44° C | 21% | 1009.2 hPa | 0 mm | - | 722 W/m² | - |
| 1777841689 | 34.44° C | 19% | 1009.3 hPa | 0 mm | - | 728 W/m² | - |
| 1777841384 | 35° C | 20% | 1009.4 hPa | 0 mm | - | 735 W/m² | - |
| 1777841082 | 34.44° C | 20% | 1009.4 hPa | 0 mm | - | 750 W/m² | - |
| 1777840779 | 34.44° C | 21% | 1009.5 hPa | 0 mm | - | 751 W/m² | - |
| 1777840477 | 34.44° C | 20% | 1009.7 hPa | 0 mm | - | 759 W/m² | - |
* Rain latest hour (hover to see other rain measurements)
** Current wind speed in m/s (hover to see current wind gust speed)